www.pogodaiklimat.ru

Погода и климат >> Архив погоды >> Корея >> Ёнпхёндо


ПОГОДА на Ёнпхёндо

  • Прогноз погоды на Ёнпхёндо
  • Монитор погоды на Ёнпхёндо

АРХИВ ПОГОДЫ на Ёнпхёндо

Время (UTC), дата Ветер
(напр.,м/с)
 
Видим.   Явления Облачность Т
(С)
Тd
(С)
f
(%)
Тe
(С)
Тes
(С)
Комфортность P
(гПа)
Po
(гПа)
Тmin
(С)
Tmax
(С)
R
(мм)
R24
(мм)
S
(см)
15 18.08 В 3 20 км 3/0
[]
+24.9 +20.3 76 +31 +31 очень
душно
1008.5 1000.4
18 18.08 ЮВ 3 20 км 3/0
[]
+24.4 +20.3 78 +30 +30 очень
душно
1008.0 999.9
21 18.08 В 4 17 км 3/1
[]
+23.7 +21.9 90 +31 +31 очень
душно
1008.1 1000.0
00 19.08 В 3 20 км 4/0
[]
+26.5 +21.9 76 +34 +40 очень
душно
1009.0 1000.9 +23.7
03 19.08 СВ 3 19 км 8/0
[]
+26.8 +23.2 81 +36 +46 очень
душно
1009.0 1000.9
06 19.08 СВ 5 20 км 8/0
[]
+26.9 +23.5 82 +37 +41 очень
душно
1008.0 1000.0
09 19.08 В 3 19 км 8/0
[]
+25.9 +22.1 80 +34 +34 очень
душно
1008.0 999.9
12 19.08 ЮВ 4 13 км 4/0
[]
+25.1 +23.1 89 +34 +34 очень
душно
1008.9 1000.8 +28.1
15 19.08 ЮВ 3 4600 м 9/0
[]
+25.0 +23.7 93 +34 +34 очень
душно
1009.0 1000.9
18 19.08 В 4 8000 м 9/0
[]
+24.8 +23.9 95 +34 +34 очень
душно
1008.4 1000.3
21 19.08 В 3 2500 м 8/0
[]
+24.6 +24.2 98 +34 +34 очень
душно
1008.6 1000.5
00 20.08 З 2 7000 м 8/0
[]
+27.6 +23.6 79 +38 +42 очень
душно
1008.4 1000.4 +24.4
03 20.08 С 2 5000 м 5/1 600 м
[]
+27.9 +25.1 85 +40 +54 опасность
солнечного
удара
1008.3 1000.3
06 20.08 СВ 3 19 км 9/9 300 м
[]
+27.4 +25.2 88 +40 +41 очень
душно
1007.5 999.5
09 20.08 15 км н/о +27.6 +25.6 89 +41 +41 опасность
перегрева
1007.4 999.4
12 20.08 ЮВ 1 20 км 3/0
[]
+26.6 +25.1 91 +38 +38 очень
душно
1008.2 1000.1 +31.1
15 20.08 Ю 3 17 км 3/0
[]
+25.9 +24.3 91 +36 +36 очень
душно
1008.1 1000.0
18 20.08 Ю 3 20 км 8/8 600 м
[]
+25.5 +23.9 91 +35 +35 очень
душно
1007.7 999.6
21 20.08 Ю 3 9000 м 9/1 300 м
[]
+25.3 +25.2 99 +36 +36 очень
душно
1007.9 999.8
00 21.08 Ю 8 17 км ?/? +25.4 +25.3 99 +37 +37 очень
душно
1008.9 1000.8 +24.7 19
03 21.08 ЮЗ 6 19 км 8/1 300 м
[]
+28.5 +27.0 92 +45 +49 опасность
перегрева
1008.5 1000.5
06 21.08 Ю 9 20 км 8/8 300 м
[]
+28.3 +26.4 89 +43 +43 опасность
перегрева
1006.8 998.8
09 21.08 ЮЗ 7 20 км 5/4 300 м
[]
+27.7 +26.4 93 +42 +43 опасность
перегрева
1007.3 999.3
12 21.08 ЮЗ 13 18 км 8/0
[]
+27.2 +26.6 97 +42 +42 опасность
перегрева
1008.4 1000.4 +30.0 0.0
15 21.08 ЮЗ 8 14 км 8/4 300 м
[]
+27.4 +27.0 98 +43 +43 опасность
перегрева
1007.6 999.6
18 21.08 ЮЗ 9 15 км 8/8 300 м
[]
+27.0 +26.8 99 +42 +42 опасность
перегрева
1006.8 998.8 3
21 21.08 СЗ 9 14 км 10/8 300 м
[]
+27.4 +26.6 95 +42 +42 опасность
перегрева
1007.3 999.3
00 22.08 С 21 10 км 8/8 300 м
[]
+27.5 +26.6 95 +42 +42 опасность
перегрева
1007.8 999.8 +25.7 3
03 22.08 СЗ 10 10 км 8/1 300 м
[]
+28.7 +26.8 89 +45 +45 опасность
перегрева
1007.7 999.7
06 22.08 СВ 3 18 км 3/0
[]
+29.1 +26.7 87 +45 +54 опасность
перегрева
1007.0 999.0
09 22.08 СВ 3 9000 м 3/3 1500 м
[]
+28.1 +26.1 89 +42 +43 опасность
перегрева
1007.8 999.8
12 22.08 СВ 10 6000 м 3/0
[]
+26.0 +25.1 95 +37 +37 очень
душно
1009.2 1001.1 +31.2 0.0
15 22.08 СВ 1 5000 м 3/0
[]
+25.7 +25.0 96 +37 +37 очень
душно
1009.2 1001.1
18 22.08 СЗ 2 5000 м 6/6 300 м
[]
+26.0 +25.1 95 +37 +37 очень
душно
1009.2 1001.1
21 22.08 В 3 5000 м 1/1 2000 м
[]
+25.5 +24.9 96 +36 +36 очень
душно
1009.5 1001.4
00 23.08 В 5 16 км 8/0
[]
+27.2 +23.6 81 +37 +40 очень
душно
1010.5 1002.4 +24.9 0.2
03 23.08 13 км н/о +28.0 +23.5 77 +38 +39 очень
душно
1010.5 1002.5
06 23.08 СВ 4 20 км 9/0
[]
+27.4 +21.4 70 +35 +38 очень
душно
1010.0 1002.0
09 23.08 СВ 2 20 км 8/3
[]
+26.6 +20.4 69 +33 +33 очень
душно
1009.9 1001.8
12 23.08 В 3 20 км 9/0
[]
+26.0 +20.3 71 +32 +32 очень
душно
1011.0 1002.9 +29.6 0.0
15 23.08 20 км н/о +25.8 +20.8 74 +32 +32 очень
душно
1011.6 1003.5
18 23.08 В 2 20 км 8/0
[]
+25.3 +20.5 75 +31 +31 очень
душно
1010.8 1002.7
21 23.08 В 3 20 км 9//
[]
+25.4 +20.8 76 +32 +32 очень
душно
1010.9 1002.8
00 24.08 ЮВ 2 16 км ?/? +26.6 +22.8 80 +35 +35 очень
душно
1011.8 1003.7 +24.6 0.0
03 24.08 СВ 4 18 км 9/1 1000 м
[]
+27.7 +24.1 81 +39 +45 очень
душно
1012.1 1004.0
06 24.08 СВ 4 19 км 8/0
[]
+26.7 +21.6 74 +34 +38 очень
душно
1011.2 1003.1
09 24.08 ЮЗ 4 16 км 10//
[]
+25.9 +23.5 87 +35 +36 очень
душно
1011.3 1003.2
12 24.08 ЮВ 5 20 км ?/? +25.5 +21.5 79 +33 +33 очень
душно
1012.6 1004.5 +30.2 0.0
15 24.08 ЮВ 3 20 км 10/10 2000 м
[]
+24.8 +17.7 65 +29 +29 душно 1012.4 1004.3
18 24.08 ЮЗ 5 20 км ?/? +22.7 +19.8 84 +29 +29 очень
душно
1012.3 1004.1
21 24.08 Ю 2 18 км 8/6 2000 м
[]
+21.4 +20.3 93 +27 +27 душно 1012.2 1004.0
00 25.08 Ю 4 20 км 9/0
[]
+23.9 +19.8 78 +29 +32 душно 1013.7 1005.6 +20.9 0.0
03 25.08 ЮВ 1 20 км 10/6 1500 м
[]
+26.4 +19.2 65 +32 +36 очень
душно
1013.7 1005.6
06 25.08 Ю 3 20 км ясно +26.4 +20.2 69 +33 +43 очень
душно
1013.4 1005.3
09 25.08 20 км н/о +25.6 +19.4 69 +31 +31 очень
душно
1013.3 1005.2
12 25.08 Ю 6 20 км 8/0
[]
+23.8 +20.3 81 +29 +29 душно 1013.5 1005.4 +28.8 0.0

 

Местоположение метеостанции Ёнпхёндо (Корея): широта 33.20 долгота 126.26 высота над уровнем моря 13 м.

В архиве по умолчанию представлена погода на Ёнпхёндо за последнюю неделю. Архивные данные за месяц целиком и за предыдущие месяцы, начиная с января 2011 года, Вы можете получить, выбрав интересующий диапазон дат из раскрывающегося списка и нажав кнопку "Ввод!".


*Определитесь, кто Вы:
робот инопланетянин человек

Внимание! Время в таблицах - всемирное. Для получения местного времени необходимо прибавить поправку, которая равна 9 ч.

Смотрите также архив погоды в соседних городах и на ближайших метеорологических станциях:

Погода в Согвипхо (Корея) (28 км)
Погода на Чеджудо (Корея) (44 км)
Погода на Сеонгсане (Корея) (61 км)
Погода в Уондо (Корея) (140 км)
Погода на Радаре Jindo (Корея) (141 км)
Погода в Мокпхо (Корея) (181 км)
Погода в Хыксандо (Корея) (181 км)
Погода в Йосу (Корея) (219 км)
Погода в Сунчхоне (Корея) (226 км)
Погода в Кванджу (Корея) (227 км)

Пояснения к столбцам:

Ветер - указаны скорость ветра в м/с - средняя за 10 мин, порывы в срок и между сроками (в фигурных скобках) и направление, откуда дует ветер: С - северный, СВ - северо-восточный, В - восточный, ЮВ - юго-восточный, Ю - южный, ЮЗ - юго-западный, З - западный, СЗ - северо-западный.
Видимость - горизонтальная дальность видимости в метрах или километрах. При видимости от 1 до 10 км при отсутствии осадков обычно наблюдается дымка, при ухудшении видимости до 1 км и менее - туман. В сухую погоду видимость может ухудшаться дымом, пылью или мглою.
Явления - указаны атмосферные явления, наблюдавшиеся в срок или в последний час перед сроком; фигурными скобками обозначены явления, наблюдавшиеся между сроками (за 1-3 часа до срока); квадратными скобками обозначены град или гололедные отложения с указанием их диаметра в мм.
Облачность - указаны через наклонную черту общая и нижняя облачность в баллах и высота нижней границы облаков в метрах; квадратными скобками обозначены формы облаков: Ci - перистые, Cs - перисто-слоистые, Cc - перисто-кучевые, Ac - высококучевые, As - высокослоистые, Sc - слоисто-кучевые, Ns - слоисто-дождевые, Cu - кучевые, Cb - кучево-дождевые. Подробнее классификацию облаков см. в Атласе облаков (PDF).
T - Температура воздуха - температура, измеренная на высоте 2 м над землей.
Td - Температура точки росы - температура, при понижении до которой содержащийся в воздухе водяной пар достигнет насыщения.
f - Относительная влажность воздуха - влажноcть воздуха, измеренная на высоте 2 м над землей.
Te - Эффективная температура - температура, которую ощущает одетый по сезону человек в тени. Характеристика душности погоды. При расчете учитывается влияние влажности воздуха и скорости ветра на теплоощущения человека.
Tes - Эффективная температура на солнце - температура, которую ощущает человек, с поправкой на солнечный нагрев. Характеристика знойности погоды. Зависит от высоты солнца над горизонтом, облачности и скорости ветра. Ночью, в пасмурную погоду, а также при ветре 12 м/с и более поправка равна нулю.
P - Атмосферное давление - приведенное к уровню моря атмосферное давление.
Po - Атмосферное давление - измеренное на уровне метеостанции атмосферное давление.
Tmin - Минимальная температура - минимум температуры воздуха на высоте 2 м над землей.
Tmax - Максимальная температура - максимум температуры воздуха на высоте 2 м над землей.
R - Количество осадков - Количество выпавших осадков за период времени, мм. При наведении курсора мыши на число - период времени, за который выпало указанное количество осадков.
R24 - Количество осадков - Количество выпавших осадков за 24 часа, мм.
S - Снежный покров - Высота снежного покрова, см. При наведении курсора мыши на число - состояние снежного покрова и степень покрытия местности в баллах.